Auburn, AL

1:06 PM CST on November 12, 2019 (GMT -0600)
Auburn-opelika-pitts

Weather History for KAUO - June, 2019

Change the Weather History Date:

Sunday, June 9, 2019

  Actual Average Record
Temperature  
Mean Temperature 77 °F -  
Max Temperature 84 °F - 97 °F (2008)
Min Temperature 69 °F - 49 °F (1977)
Cooling Degree Days 12    
Month to date cooling degree days 118  
Year to date cooling degree days 534  
Since 1 June cooling degree days 118  
Growing Degree Days 26 (Base 50)    
Moisture  
Dew Point 74 °F    
Average Humidity 90    
Maximum Humidity 100    
Minimum Humidity 72    
Precipitation  
Precipitation T in - 1.63 in (1992)
Month to date precipitation 1.04  
Year to date precipitation 21.50  
Sea Level Pressure  
Sea Level Pressure 29.91 in    
Wind  
Wind Speed 5 mph (SE)    
Max Wind Speed 9 mph    
Max Gust Speed -    
Visibility 10 miles    
Events Rain , Thunderstorm    
T = Trace of Precipitation, MM = Missing Value Source: NWS Daily Summary

Daily Weather History Graph

Daily Weather History Graph

Search for Another Location

Airport or City:

Astronomy

Jun. 09, 2019 Rise Set
Actual Time 5:33 AM CDT 7:48 PM CDT
Civil Twilight 5:05 AM CDT 8:16 PM CDT
Nautical Twilight 4:30 AM CDT 8:51 PM CDT
Astronomical Twilight 3:52 AM CDT 9:29 PM CDT
Moon 11:59 AM CDT (6/9) 12:38 AM CDT (6/9)
Length of Visible Light 15h 11m
Length of Day
14h 14m
Waxing Crescent, 44% of the Moon is Illuminated
Jun 9
Waxing Crescent
Jun 10
First Quarter
Jun 17
Full
Jun 25
Last Quarter
Jul 2
New

Hourly Weather History & Observations

Time (CDT) Temp. Heat Index Dew Point Humidity Pressure Visibility Wind Dir Wind Speed Gust Speed Precip Events Conditions
12:30 AM 71.6 °F - 71.6 °F 100% 29.86 in 10.0 mi SSE 8.1 mph - N/A   Overcast
12:56 AM 72.0 °F - 72.0 °F 100% 29.90 in 10.0 mi SSE 5.8 mph - N/A   Overcast
1:21 AM 71.6 °F - 71.6 °F 100% 29.86 in 10.0 mi SSE 8.1 mph - N/A   Overcast
1:56 AM 71.1 °F - - N/A% 29.89 in 10.0 mi ESE 5.8 mph - N/A   Overcast
2:56 AM 71.1 °F - - N/A% 29.87 in 10.0 mi SE 5.8 mph - N/A   Overcast
3:56 AM 70.0 °F - - N/A% 29.89 in 10.0 mi SSE 4.6 mph - N/A   Overcast
4:48 AM 69.8 °F - - N/A% 29.84 in 10.0 mi ESE 5.8 mph - N/A   Overcast
4:56 AM 70.0 °F - - N/A% 29.88 in 10.0 mi SE 5.8 mph - N/A   Overcast
5:48 AM 69.8 °F - - N/A% 29.86 in 9.0 mi ESE 6.9 mph - N/A   Overcast
5:56 AM 69.1 °F - - N/A% 29.91 in 9.0 mi ESE 6.9 mph - N/A   Overcast
6:56 AM 70.0 °F - - N/A% 29.93 in 6.0 mi ESE 4.6 mph - 0.00 in   Haze
7:56 AM 70.0 °F - - N/A% 29.93 in 9.0 mi ESE 4.6 mph - N/A   Overcast
8:56 AM 71.1 °F - - N/A% 29.95 in 9.0 mi East 4.6 mph - N/A   Overcast
9:56 AM 73.0 °F - - N/A% 29.95 in 7.0 mi ESE 6.9 mph - N/A   Overcast
10:31 AM 75.2 °F - - N/A% 29.91 in 10.0 mi ESE 8.1 mph - N/A   Overcast
10:56 AM 73.9 °F - - N/A% 29.96 in 9.0 mi East 4.6 mph - 0.00 in Rain Light Rain
11:14 AM 75.2 °F - - N/A% 29.91 in 10.0 mi Calm Calm - 0.00 in   Overcast
11:49 AM 78.8 °F - 75.2 °F 89% 29.90 in 10.0 mi Variable 4.6 mph - 0.00 in   Overcast
11:56 AM 78.1 °F - 75.0 °F 90% 29.93 in 10.0 mi Calm Calm - 0.00 in   Overcast
12:10 PM 78.8 °F - 75.2 °F 89% 29.90 in 10.0 mi SSW 4.6 mph - N/A   Overcast
12:56 PM 82.0 °F 88.6 °F 75.0 °F 79% 29.91 in 10.0 mi South 9.2 mph - N/A   Overcast
1:36 PM 82.4 °F 88.2 °F 73.4 °F 74% 29.88 in 10.0 mi South 5.8 mph - N/A   Partly Cloudy
1:56 PM 82.9 °F 88.8 °F 73.0 °F 72% 29.91 in 7.0 mi Variable 4.6 mph - N/A   Clear
2:56 PM 82.0 °F 87.4 °F 73.0 °F 74% 29.91 in 10.0 mi North 5.8 mph - N/A   Mostly Cloudy
3:56 PM 79.0 °F - 75.0 °F 88% 29.92 in 10.0 mi NW 4.6 mph - N/A   Mostly Cloudy
4:27 PM 78.8 °F - 75.2 °F 89% 29.88 in 10.0 mi WNW 3.5 mph - N/A Thunderstorm Mostly Cloudy
5:23 PM 78.8 °F - 73.4 °F 83% 29.89 in 10.0 mi NE 3.5 mph - N/A   Scattered Clouds
5:34 PM 78.8 °F - 73.4 °F 83% 29.90 in 10.0 mi East 4.6 mph - N/A Thunderstorm Partly Cloudy
5:49 PM 78.8 °F - 73.4 °F 83% 29.90 in 10.0 mi ENE 3.5 mph - N/A   Clear
5:56 PM 78.1 °F - 73.0 °F 84% 29.93 in 10.0 mi East 3.5 mph - N/A   Clear
6:37 PM 77.0 °F - 75.2 °F 94% 29.92 in 10.0 mi South 13.8 mph - N/A   Mostly Cloudy
6:56 PM 75.0 °F - 75.0 °F 100% 29.95 in 10.0 mi SE 8.1 mph - N/A   Mostly Cloudy
7:07 PM 75.2 °F - 75.2 °F 100% 29.92 in 10.0 mi SE 5.8 mph - N/A   Scattered Clouds
7:10 PM 75.2 °F - 75.2 °F 100% 29.92 in 10.0 mi ESE 5.8 mph - N/A   Mostly Cloudy
7:22 PM 73.4 °F - 73.4 °F 100% 29.91 in 10.0 mi Variable 5.8 mph - N/A   Scattered Clouds
7:56 PM 73.9 °F - 73.9 °F 100% 29.95 in 10.0 mi Calm Calm - N/A   Clear
8:56 PM 73.0 °F - - N/A% 29.96 in 10.0 mi East 5.8 mph - N/A   Clear
9:41 PM 71.6 °F - - N/A% 29.93 in 10.0 mi SE 5.8 mph - N/A   Partly Cloudy
9:56 PM 72.0 °F - - N/A% 29.98 in 10.0 mi South 4.6 mph - N/A   Scattered Clouds
10:07 PM 71.6 °F - - N/A% 29.95 in 10.0 mi Variable 3.5 mph - N/A   Mostly Cloudy
10:56 PM 72.0 °F - - N/A% 29.98 in 10.0 mi SSE 5.8 mph - N/A   Overcast
11:41 PM 71.6 °F - - N/A% 29.94 in 10.0 mi SSE 4.6 mph - N/A   Overcast
11:56 PM 72.0 °F - - N/A% 29.97 in 10.0 mi ESE 3.5 mph - N/A   Overcast